Location: Gez
(43.0167°N, 0.1000°W)
Time: 12:58:03
(UTC+00:00)

SL-24 R/B - Pass Details

Date: 20 January 2026
Orbit: 679 x 1188 km, 98.2° (Epoch: 10 February)

Event Time Altitude Azimuth Distance (km) Brightness Sun altitude
Rises 06:12:28 0° 359° (N) 4,085 8.6 -13.4°
Reaches altitude 10° 06:16:36 10° 336° (NNW) 3,126 7.8 -12.6°
Maximum altitude 06:19:58 14° 308° (NW) 2,809 7.3 -12.0°
Enters shadow 06:20:46 14° 301° (WNW) 2,820 7.3 -11.9°
